CDT,Max TemperatureF,Mean TemperatureF,Min TemperatureF,Max Dew PointF,MeanDew PointF,Min DewpointF,Max Humidity, Mean Humidity, Min Humidity, Max Sea Level PressureIn, Mean Sea Level PressureIn, Min Sea Level PressureIn, Max VisibilityMiles, Mean VisibilityMiles, Min VisibilityMiles, Max Wind SpeedMPH, Mean Wind SpeedMPH, Max Gust SpeedMPH,PrecipitationIn, CloudCover, Events, WindDirDegrees
2013-7-1,84,68,53,53,47,40,86,50,21,30.17,30.13,30.11,10,10,10,16,7,22,0.00,1,,14
2013-7-2,83,69,55,55,49,38,85,52,21,30.15,30.10,30.04,10,10,10,12,4,16,0.00,1,,336
2013-7-3,81,68,54,59,53,47,88,58,30,30.07,30.03,29.98,10,10,7,12,3,,0.00,2,,120
2013-7-4,86,73,60,58,54,48,85,55,28,30.03,29.99,29.94,10,10,10,18,7,23,0.00,2,,178
2013-7-5,88,75,62,59,57,55,80,55,32,29.98,29.94,29.89,10,10,10,20,9,26,0.00,0,,169
2013-7-6,90,78,67,64,60,58,76,54,34,29.95,29.90,29.85,10,10,10,21,10,25,0.00,0,,169
2013-7-7,90,80,71,69,63,60,76,56,40,29.92,29.89,29.86,10,10,7,20,9,24,0.00,2,Rain,193
2013-7-8,89,80,72,71,69,67,87,68,47,29.99,29.95,29.91,10,10,7,13,5,,0.01,1,Rain,203
2013-7-9,92,82,73,74,71,67,88,71,48,29.99,29.92,29.88,10,9,4,16,6,21,0.14,2,Rain,236
2013-7-10,82,74,63,67,56,45,86,55,28,30.09,30.04,29.94,10,10,10,18,8,25,0.00,0,,358
2013-7-11,84,71,58,58,54,48,88,57,29,30.13,30.08,30.02,10,10,7,13,4,16,0.00,0,,138
2013-7-12,86,74,61,60,57,54,81,57,33,30.08,30.03,29.99,10,10,10,17,9,24,0.00,0,,155
2013-7-13,81,74,66,63,58,54,66,59,49,30.07,30.03,30.00,10,10,10,15,9,21,0.00,1,Rain,145
2013-7-14,86,76,66,61,59,55,80,58,35,30.19,30.12,30.07,10,10,10,14,7,21,0.00,1,,137
2013-7-15,88,76,63,68,64,59,85,66,45,30.24,30.20,30.15,10,10,7,12,5,18,0.00,1,,123
2013-7-16,90,79,68,70,67,63,89,66,41,30.27,30.24,30.21,10,10,7,8,4,,0.00,1,,182
2013-7-17,93,80,68,70,66,62,88,64,36,30.32,30.26,30.19,10,10,7,10,3,,0.00,1,,191
2013-7-18,92,81,70,68,66,61,88,62,36,30.20,30.08,29.94,10,10,7,18,8,26,0.00,0,,207
2013-7-19,92,80,67,68,63,55,77,54,29,29.94,29.90,29.86,10,10,10,14,8,20,0.00,2,,274
2013-7-20,87,72,58,62,57,46,87,59,24,30.00,29.94,29.88,10,10,10,7,3,,0.00,0,,9
2013-7-21,80,70,61,66,62,57,89,74,53,29.94,29.87,29.82,10,10,10,18,4,25,0.00,2,Rain,138
2013-7-22,91,77,63,70,66,61,92,70,39,29.86,29.80,29.70,10,9,1,18,6,45,0.48,1,Rain,201
2013-7-23,77,69,61,66,58,55,91,70,48,30.01,29.95,29.85,10,10,7,15,6,21,0.13,0,,22
2013-7-24,79,67,55,63,56,51,92,70,39,30.09,30.05,30.01,10,10,5,7,2,,0.00,2,,319
2013-7-25,84,71,58,64,60,56,91,68,48,30.07,30.02,29.96,10,10,10,15,6,21,0.00,1,Rain,208
2013-7-26,75,66,57,64,55,48,92,66,42,30.08,30.03,29.96,10,9,0,20,6,26,0.00,3,Fog,320
2013-7-27,70,59,48,51,46,40,90,64,35,30.11,30.06,30.01,10,10,10,15,7,20,0.00,2,,325
2013-7-28,75,60,46,53,46,41,88,60,31,30.08,30.04,30.01,10,10,10,12,6,21,0.00,0,,308
2013-7-29,73,60,48,60,54,45,90,72,49,30.13,30.10,30.06,10,10,10,14,5,17,0.01,3,Rain,139
2013-7-30,70,66,63,64,62,58,92,87,79,30.10,30.07,30.05,10,5,1,10,4,,0.08,8,Rain,91
2013-7-31,83,72,62,65,62,58,93,75,43,30.14,30.09,30.04,10,6,0,7,2,,0.01,5,Fog,319